Weather History for Cape Girardeau, MO

Change the Weather History Date:

Friday, March 1, 2013

  Actual Average Record
Temperature  
Mean Temperature 34 °F 42 °F  
Max Temperature 37 °F 53 °F 72 °F (1976)
Min Temperature 31 °F 32 °F 13 °F (1980)
Degree Days  
Heating Degree Days 31 23  
Month to date heating degree days 31 23  
Since 1 July heating degree days 3270 3520  
Cooling Degree Days 0 0  
Month to date cooling degree days 0 0  
Year to date cooling degree days 0 0  
Moisture  
Dew Point 30 °F    
Average Humidity 88    
Maximum Humidity 100    
Minimum Humidity 76    
Precipitation  
Precipitation T in 0.12 in 1.25 in (1972)
Month to date precipitation T 0.12  
Year to date precipitation 6.62 7.00  
Sea Level Pressure  
Sea Level Pressure 30.11 in    
Wind  
Wind Speed 9 mph (NW)    
Max Wind Speed 16 mph    
Max Gust Speed 20 mph    
Visibility 4 miles    
Events Snow    
T = Trace of Precipitation, MM = Missing Value Source: NWS Daily Summary

Daily Weather History Graph

Daily Weather History Graph

Search for Another Location

Airport:

Trip Planner

Search our weather history database for the weather conditions in past years. The results will help you decide how hot, cold, wet, or windy it might be!

Date:

Astronomy

Mar. 01, 2013 Rise Set
Actual Time 6:29 AM CST 5:52 PM CST
Civil Twilight 6:02 AM CST 6:18 PM CST
Nautical Twilight 5:32 AM CST 6:48 PM CST
Astronomical Twilight 5:02 AM CST 7:19 PM CST
Moon 10:18 PM CST (3/1) 8:22 AM CST (3/1)
Length of Visible Light 12h 15m
Length of Day
11h 23m
Waning Gibbous, 83% of the Moon is Illuminated
Mar 1
Waning Gibbous
Mar 4
Last Quarter
Mar 11
New
Mar 19
First Quarter
Mar 27
Full

Hourly Weather History & Observations

Time (CST) Temp. Windchill Dew Point Humidity Pressure Visibility Wind Dir Wind Speed Gust Speed Precip Events Conditions
12:53 AM 33.1 °F 30.0 °F 30.0 °F 89% 30.09 in 5.0 mi NW 3.5 mph - N/A   Overcast
1:53 AM 33.1 °F 27.7 °F 30.0 °F 89% 30.09 in 2.5 mi NW 5.8 mph - 0.00 in Snow Light Snow
2:17 AM 32.0 °F 27.5 °F 30.2 °F 93% 30.08 in 1.8 mi NW 4.6 mph - 0.00 in Snow Light Snow
2:25 AM 32.0 °F 26.4 °F 30.2 °F 93% 30.08 in 2.0 mi NW 5.8 mph - 0.00 in Snow Light Snow
2:32 AM 32.0 °F 26.4 °F 30.2 °F 93% 30.08 in 2.0 mi WNW 5.8 mph - 0.00 in Snow Light Snow
2:53 AM 32.0 °F 26.4 °F 30.0 °F 92% 30.09 in 2.0 mi WNW 5.8 mph - 0.00 in Snow Light Snow
3:14 AM 32.0 °F 25.6 °F 30.2 °F 93% 30.07 in 2.5 mi WNW 6.9 mph - 0.00 in Snow Light Snow
3:53 AM 32.0 °F 26.4 °F 30.0 °F 92% 30.08 in 2.0 mi WNW 5.8 mph - 0.00 in Snow Light Snow
4:07 AM 32.0 °F 26.4 °F 30.2 °F 93% 30.07 in 1.8 mi WNW 5.8 mph - 0.00 in Snow Light Snow
4:14 AM 32.0 °F 26.4 °F 30.2 °F 93% 30.07 in 2.0 mi WNW 5.8 mph - 0.00 in Snow Light Snow
4:53 AM 32.0 °F 26.4 °F 30.2 °F 93% 30.07 in 2.0 mi WNW 5.8 mph - N/A Snow Light Snow
5:53 AM 30.9 °F 24.3 °F 30.0 °F 96% 30.08 in 2.5 mi WNW 6.9 mph - 0.00 in Snow Light Snow
6:33 AM 30.2 °F 24.3 °F 30.2 °F 100% 30.08 in 3.0 mi NW 5.8 mph - 0.00 in Snow Light Snow
6:36 AM 30.2 °F 24.3 °F 30.2 °F 100% 30.08 in 2.5 mi WNW 5.8 mph - 0.00 in Snow Light Snow
6:46 AM 32.0 °F 26.4 °F 28.4 °F 87% 30.08 in 2.0 mi NW 5.8 mph - 0.00 in   Overcast
6:53 AM 32.0 °F 27.5 °F 28.9 °F 88% 30.09 in 2.5 mi WNW 4.6 mph - 0.00 in   Overcast
7:02 AM 32.0 °F 27.5 °F 28.4 °F 87% 30.09 in 3.0 mi NW 4.6 mph - N/A   Overcast
7:22 AM 32.0 °F 26.4 °F 28.4 °F 87% 30.09 in 2.5 mi NW 5.8 mph - 0.00 in Snow Light Snow
7:30 AM 32.0 °F 25.6 °F 28.4 °F 87% 30.10 in 2.0 mi NW 6.9 mph - 0.00 in Snow Light Snow
7:41 AM 32.0 °F 25.6 °F 28.4 °F 87% 30.10 in 1.8 mi NW 6.9 mph - 0.00 in Snow Light Snow
7:53 AM 32.0 °F 25.6 °F 28.9 °F 88% 30.11 in 1.5 mi NW 6.9 mph - 0.00 in Snow Light Snow
8:16 AM 32.0 °F 24.8 °F 28.4 °F 87% 30.10 in 1.2 mi NW 8.1 mph - 0.00 in Snow Light Snow
8:26 AM 32.0 °F 24.8 °F 28.4 °F 87% 30.11 in 2.0 mi NW 8.1 mph - 0.00 in Snow Light Snow
8:35 AM 32.0 °F 25.6 °F 28.4 °F 87% 30.11 in 2.0 mi NNW 6.9 mph - 0.00 in Snow Light Snow
8:43 AM 32.0 °F 24.8 °F 28.4 °F 87% 30.11 in 2.0 mi NNW 8.1 mph - 0.00 in Snow Light Snow
8:51 AM 32.0 °F 24.2 °F 28.4 °F 87% 30.11 in 1.8 mi NW 9.2 mph - 0.00 in Snow Light Snow
8:53 AM 32.0 °F 23.6 °F 28.9 °F 88% 30.12 in 1.8 mi NW 10.4 mph - 0.00 in Snow Light Snow
9:13 AM 33.8 °F 26.4 °F 28.4 °F 81% 30.11 in 1.8 mi NNW 9.2 mph - 0.00 in Snow Light Snow
9:21 AM 33.8 °F 26.4 °F 30.2 °F 87% 30.11 in 2.0 mi NNW 9.2 mph - 0.00 in Snow Light Snow
9:53 AM 33.1 °F 24.9 °F 30.0 °F 89% 30.12 in 2.5 mi NNW 10.4 mph - 0.00 in Snow Light Snow
10:05 AM 33.8 °F 26.4 °F 30.2 °F 87% 30.11 in 2.0 mi NW 9.2 mph - 0.00 in Snow Light Snow
10:22 AM 33.8 °F 25.8 °F 30.2 °F 87% 30.11 in 3.0 mi NNW 10.4 mph - 0.00 in   Overcast
10:53 AM 35.1 °F 26.9 °F 30.9 °F 85% 30.12 in 5.0 mi NW 11.5 mph - 0.00 in   Overcast
11:53 AM 35.1 °F 27.4 °F 30.0 °F 82% 30.12 in 6.0 mi North 10.4 mph - N/A   Haze
12:53 PM 37.0 °F 30.4 °F 30.9 °F 79% 30.11 in 8.0 mi NNW 9.2 mph - 0.00 in   Overcast
1:06 PM 35.6 °F 28.0 °F 30.2 °F 81% 30.10 in 1.8 mi NW 10.4 mph - 0.00 in Snow Light Snow
1:38 PM 35.6 °F 28.0 °F 32.0 °F 87% 30.09 in 2.5 mi NW 10.4 mph - 0.00 in Snow Light Snow
1:53 PM 35.1 °F 30.1 °F 30.9 °F 85% 30.10 in 3.0 mi NNW 5.8 mph - 0.00 in Snow Light Snow
2:17 PM 35.6 °F 28.6 °F 30.2 °F 81% 30.09 in 2.5 mi NW 9.2 mph - 0.00 in Snow Light Snow
2:35 PM 35.6 °F 29.2 °F 32.0 °F 87% 30.09 in 4.0 mi NW 8.1 mph - 0.00 in Snow Light Snow
2:53 PM 35.1 °F 26.9 °F 30.9 °F 85% 30.10 in 3.0 mi NW 11.5 mph - 0.00 in Snow Light Snow
3:09 PM 35.6 °F 27.5 °F 30.2 °F 81% 30.09 in 4.0 mi NW 11.5 mph - 0.00 in   Overcast
3:30 PM 35.6 °F 28.0 °F 30.2 °F 81% 30.09 in 4.0 mi NW 10.4 mph - 0.00 in   Overcast
3:37 PM 35.6 °F 28.6 °F 30.2 °F 81% 30.09 in 6.0 mi NW 9.2 mph - 0.00 in Snow Light Snow
3:53 PM 36.0 °F 28.5 °F 30.0 °F 79% 30.10 in 10.0 mi NW 10.4 mph - 0.00 in   Overcast
4:03 PM 35.6 °F 28.6 °F 30.2 °F 81% 30.09 in 10.0 mi NNW 9.2 mph - N/A   Overcast
4:51 PM 33.8 °F 24.8 °F 30.2 °F 87% 30.11 in 3.0 mi NNW 12.7 mph - 0.00 in Snow Light Snow
4:53 PM 33.8 °F 25.3 °F 30.2 °F 87% 30.11 in 2.5 mi NNW 11.5 mph - N/A Snow Light Snow
5:34 PM 33.8 °F 27.7 °F 30.2 °F 87% 30.11 in 3.0 mi NNW 6.9 mph - 0.00 in Snow Light Snow
5:53 PM 34.0 °F 28.0 °F 30.9 °F 89% 30.13 in 3.0 mi NW 6.9 mph - 0.00 in Snow Light Snow
6:02 PM 33.8 °F 25.8 °F 30.2 °F 87% 30.12 in 4.0 mi NW 10.4 mph - 0.00 in Snow Light Snow
6:53 PM 33.1 °F 24.9 °F 30.9 °F 92% 30.14 in 3.0 mi NW 10.4 mph - 0.00 in Snow Light Snow
7:02 PM 33.8 °F 27.0 °F 30.2 °F 87% 30.13 in 2.5 mi NW 8.1 mph - 0.00 in Snow Light Snow
7:22 PM 33.8 °F 26.4 °F 30.2 °F 87% 30.14 in 4.0 mi NNW 9.2 mph - 0.00 in Snow Light Snow
7:25 PM 33.8 °F 25.3 °F 30.2 °F 87% 30.14 in 4.0 mi NNW 11.5 mph - 0.00 in Snow Light Snow
7:53 PM 33.1 °F 24.9 °F 28.9 °F 85% 30.15 in 6.0 mi NW 10.4 mph - 0.00 in   Overcast
8:35 PM 32.0 °F 23.0 °F 28.4 °F 87% 30.15 in 7.0 mi North 11.5 mph - 0.00 in   Overcast
8:43 PM 32.0 °F 22.5 °F 28.4 °F 87% 30.15 in 10.0 mi North 12.7 mph - 0.00 in   Overcast
8:53 PM 32.0 °F 22.5 °F 28.0 °F 85% 30.16 in 10.0 mi North 12.7 mph - 0.00 in   Overcast
9:53 PM 32.0 °F 21.6 °F 26.1 °F 79% 30.17 in 10.0 mi North 15.0 mph 19.6 mph N/A   Overcast
10:53 PM 30.9 °F 24.3 °F 27.0 °F 85% 30.17 in 10.0 mi North 6.9 mph - N/A   Overcast
11:53 PM 30.9 °F 21.7 °F 27.0 °F 85% 30.17 in 9.0 mi NNW 11.5 mph - N/A   Overcast